EW5029 Weather Reports


Display with metric or nautical units.
time (UTC)temp
F
wind
direction
speed
MPH
gust
MPH
rain 1hr
in
rain 24hr
in
rain mn
in
humidity
%
barometer
mb
20260906222024 63 116 0.0 0.0 0.00 0.00 0.00 76 1019.7
20260906221524 63 116 0.0 0.0 0.00 0.00 0.00 76 1019.7
20260906221023 63 116 0.0 1.0 0.00 0.00 0.00 76 1019.6
20260906220522 63 116 0.0 2.0 0.00 0.00 0.00 76 1019.6
20260906220033 63 116 0.0 2.0 0.00 0.00 0.00 76 1019.7
20260906215520 64 116 0.0 2.0 0.00 0.00 0.00 75 1019.7
20260906215020 64 116 0.0 2.0 0.00 0.00 0.00 75 1019.8
20260906214527 64 116 0.0 2.0 0.00 0.00 0.00 75 1019.8
20260906214019 64 116 0.0 2.0 0.00 0.00 0.00 74 1019.8
20260906213525 64 116 0.0 2.0 0.00 0.00 0.00 74 1019.8
20260906213019 65 116 0.0 3.0 0.00 0.00 0.00 74 1020.0
20260906212521 65 116 0.0 3.0 0.00 0.00 0.00 73 1020.0
20260906212017 65 115 1.0 3.0 0.00 0.00 0.00 73 1020.0
20260906211518 65 108 0.0 2.0 0.00 0.00 0.00 73 1020.1
20260906211016 65 117 0.0 2.0 0.00 0.00 0.00 73 1020.3
20260906210519 65 115 0.0 2.0 0.00 0.00 0.00 72 1020.1
20260906210017 65 115 1.0 3.0 0.00 0.00 0.00 72 1020.1
20260906205516 65 126 1.0 4.0 0.00 0.00 0.00 72 1020.2
20260906205015 65 115 2.0 6.0 0.00 0.00 0.00 72 1020.2
20260906204515 65 125 1.0 6.0 0.00 0.00 0.00 73 1020.3
20260906204014 65 119 2.0 4.0 0.00 0.00 0.00 73 1020.3
20260906203514 65 123 0.0 4.0 0.00 0.00 0.00 73 1020.2
20260906203014 65 123 1.0 4.0 0.00 0.00 0.00 73 1020.3
20260906202514 65 117 1.0 3.0 0.00 0.00 0.00 73 1020.4
20260906202013 65 113 0.0 3.0 0.00 0.00 0.00 73 1020.5
20260906201513 65 107 1.0 3.0 0.00 0.00 0.00 73 1020.4
20260906201013 65 120 0.0 4.0 0.00 0.00 0.00 73 1020.5
20260906200516 65 120 1.0 4.0 0.00 0.00 0.00 73 1020.6
20260906200012 65 120 0.0 2.0 0.00 0.00 0.00 73 1020.6
20260906195511 65 121 0.0 3.0 0.00 0.00 0.00 73 1020.5
20260906195015 65 125 0.0 3.0 0.00 0.00 0.00 73 1020.6
20260906194516 65 121 0.0 3.0 0.00 0.00 0.00 74 1020.6
20260906194011 65 126 0.0 2.0 0.00 0.00 0.00 74 1020.8
20260906193510 65 93 0.0 0.0 0.00 0.00 0.00 74 1020.8
20260906193009 65 93 0.0 0.0 0.00 0.00 0.00 74 1020.9
20260906192510 65 93 0.0 0.0 0.00 0.00 0.00 74 1020.9
20260906192009 65 93 0.0 1.0 0.00 0.00 0.00 74 1020.9
20260906191508 65 92 0.0 2.0 0.00 0.00 0.00 74 1020.8
20260906191008 65 91 0.0 2.0 0.00 0.00 0.00 74 1020.9
20260906190508 65 91 0.0 2.0 0.00 0.00 0.00 74 1020.9
20260906190148 65 91 0.0 2.0 0.00 0.00 0.00 75 1021.0
20260906185505 65 90 0.0 2.0 0.00 0.00 0.00 74 1021.2
20260906185005 65 90 0.0 2.0 0.00 0.00 0.00 74 1021.3
20260906184517 65 90 0.0 2.0 0.00 0.00 0.00 74 1021.3
20260906184004 65 90 0.0 0.0 0.00 0.00 0.00 74 1021.4
20260906183507 66 90 0.0 1.0 0.00 0.00 0.00 74 1021.3
20260906183004 66 90 0.0 1.0 0.00 0.00 0.00 73 1021.3
20260906182503 66 90 0.0 1.0 0.00 0.00 0.00 73 1021.3
20260906182004 66 90 0.0 1.0 0.00 0.00 0.00 73 1021.3
20260906181504 66 90 0.0 0.0 0.00 0.00 0.00 72 1021.3
20260906181007 67 90 0.0 0.0 0.00 0.00 0.00 71 1021.3
20260906180503 67 90 0.0 0.0 0.00 0.00 0.00 71 1021.2
20260906180003 67 90 0.0 0.0 0.00 0.00 0.00 71 1021.3
20260906175508 67 90 0.0 1.0 0.00 0.00 0.00 70 1021.3
20260906175002 68 90 0.0 1.0 0.00 0.00 0.00 69 1021.5
20260906174501 68 47 0.0 1.0 0.00 0.00 0.00 68 1021.5
20260906174100 68 47 0.0 1.0 0.00 0.00 0.00 68 1021.5
20260906173601 69 47 0.0 1.0 0.00 0.00 0.00 67 1021.8
20260906173116 69 119 0.0 0.0 0.00 0.00 0.00 67 1021.8
20260906172558 69 119 0.0 2.0 0.00 0.00 0.00 66 1021.8
20260906172057 69 119 0.0 3.0 0.00 0.00 0.00 64 1021.9
20260906171557 69 116 0.0 3.0 0.00 0.00 0.00 63 1022.1
20260906171056 70 117 0.0 2.0 0.00 0.00 0.00 63 1022.0
20260906170558 70 115 0.0 2.0 0.00 0.00 0.00 62 1022.2
20260906170100 70 122 0.0 4.0 0.00 0.00 0.00 62 1022.3
20260906165556 70 122 0.0 4.0 0.00 0.00 0.00 61 1022.2
20260906165054 70 103 2.0 4.0 0.00 0.00 0.00 61 1022.2
20260906164555 71 130 1.0 6.0 0.00 0.00 0.00 60 1022.1
20260906164053 71 120 2.0 6.0 0.00 0.00 0.00 59 1022.2
20260906163557 71 118 1.0 4.0 0.00 0.00 0.00 60 1022.4
20260906163056 71 123 1.0 6.0 0.00 0.00 0.00 59 1022.4
20260906162552 71 119 2.0 6.0 0.00 0.00 0.00 58 1022.4
20260906162051 71 117 2.0 6.0 0.00 0.00 0.00 58 1022.5
20260906161551 71 120 1.0 6.0 0.00 0.00 0.00 58 1022.6
20260906161050 72 113 1.0 6.0 0.00 0.00 0.00 58 1022.5
20260906160553 72 195 1.0 7.0 0.00 0.00 0.00 57 1022.7
20260906160050 72 135 2.0 7.0 0.00 0.00 0.00 56 1022.7
20260906155548 72 131 2.0 8.0 0.00 0.00 0.00 56 1022.8
20260906155047 72 116 1.0 7.0 0.00 0.00 0.00 57 1022.8
20260906154548 72 148 2.0 7.0 0.00 0.00 0.00 56 1022.8
20260906154048 72 129 2.0 6.0 0.00 0.00 0.00 58 1022.8
20260906153547 71 115 1.0 6.0 0.00 0.00 0.00 58 1022.8
20260906153047 71 180 2.0 6.0 0.00 0.00 0.00 57 1022.9
20260906152547 72 128 2.0 7.0 0.00 0.00 0.00 57 1022.9
20260906152046 72 112 1.0 8.0 0.00 0.00 0.00 58 1023.0
20260906151548 72 117 3.0 8.0 0.00 0.00 0.00 56 1023.0
20260906151045 72 173 3.0 7.0 0.00 0.00 0.00 57 1022.9
20260906150548 72 146 1.0 7.0 0.00 0.00 0.00 57 1022.9
20260906150045 72 136 2.0 8.0 0.00 0.00 0.00 58 1022.9
20260906145545 72 128 3.0 8.0 0.00 0.00 0.00 56 1022.9
20260906145045 72 130 2.0 8.0 0.00 0.00 0.00 57 1023.0
20260906144542 72 186 1.0 8.0 0.00 0.00 0.00 58 1023.1
20260906144040 72 140 2.0 8.0 0.00 0.00 0.00 57 1023.2
20260906143539 72 109 3.0 8.0 0.00 0.00 0.00 56 1023.3
20260906143040 71 133 2.0 7.0 0.00 0.00 0.00 59 1023.3
20260906142543 72 130 2.0 7.0 0.00 0.00 0.00 58 1023.4
20260906142038 72 192 3.0 8.0 0.00 0.00 0.00 57 1023.5
20260906141541 72 119 3.0 8.0 0.00 0.00 0.00 58 1023.5
20260906141037 71 108 3.0 7.0 0.00 0.00 0.00 58 1023.6
20260906140537 71 144 2.0 7.0 0.00 0.00 0.00 59 1023.6
20260906140045 71 106 3.0 6.0 0.00 0.00 0.00 58 1023.6
20260906135536 71 139 3.0 7.0 0.00 0.00 0.00 59 1023.5
20260906135035 71 149 2.0 8.0 0.00 0.00 0.00 60 1023.5
20260906134536 71 113 2.0 8.0 0.00 0.00 0.00 60 1023.5
20260906134037 71 120 2.0 4.0 0.00 0.00 0.00 58 1023.6
20260906133534 71 134 0.0 7.0 0.00 0.00 0.00 61 1023.8
20260906133037 71 125 2.0 11.0 0.00 0.00 0.00 59 1023.8
20260906132532 71 167 3.0 11.0 0.00 0.00 0.00 59 1024.0
20260906132031 71 123 2.0 7.0 0.00 0.00 0.00 59 1024.2
20260906131536 70 115 3.0 7.0 0.00 0.00 0.00 61 1024.2
20260906131032 70 175 2.0 8.0 0.00 0.00 0.00 60 1024.3
20260906130529 70 114 2.0 8.0 0.00 0.00 0.00 60 1024.2
20260906130029 70 130 3.0 10.0 0.00 0.00 0.00 58 1024.4
20260906125530 71 99 4.0 9.0 0.00 0.00 0.00 58 1024.5
20260906125027 71 128 2.0 8.0 0.00 0.00 0.00 57 1024.4
20260906124527 71 127 1.0 9.0 0.00 0.00 0.00 59 1024.5
20260906124026 71 121 2.0 5.0 0.00 0.00 0.00 59 1024.4
20260906123525 71 171 3.0 9.0 0.00 0.00 0.00 61 1024.5
20260906123024 70 132 2.0 8.0 0.00 0.00 0.00 62 1024.6
20260906122523 70 107 3.0 11.0 0.00 0.00 0.00 61 1024.7
20260906122024 69 141 2.0 10.0 0.00 0.00 0.00 62 1024.7
20260906121523 69 124 3.0 10.0 0.00 0.00 0.00 61 1024.7
20260906121022 70 119 3.0 10.0 0.00 0.00 0.00 62 1024.7
20260906120526 70 117 4.0 9.0 0.00 0.00 0.00 59 1024.9
20260906120024 71 111 2.0 7.0 0.00 0.00 0.00 62 1024.8
20260906115620 71 123 1.0 10.0 0.00 0.00 0.00 62 1024.8
20260906115019 70 123 3.0 10.0 0.00 0.00 0.00 62 1024.9
20260906114526 69 141 3.0 11.0 0.00 0.00 0.00 62 1024.9
20260906114016 69 130 3.0 11.0 0.00 0.00 0.00 63 1025.0
20260906113516 69 124 2.0 9.0 0.00 0.00 0.00 64 1025.1
20260906113116 69 177 2.0 9.0 0.00 0.00 0.00 63 1025.1
20260906112514 69 129 3.0 6.0 0.00 0.00 0.00 62 1025.2
20260906112014 69 113 2.0 9.0 0.00 0.00 0.00 63 1025.2
20260906111513 69 121 3.0 11.0 0.00 0.00 0.00 62 1025.2
20260906111013 70 117 2.0 6.0 0.00 0.00 0.00 63 1025.3
20260906110511 70 171 2.0 7.0 0.00 0.00 0.00 66 1025.4
20260906110010 69 119 2.0 8.0 0.00 0.00 0.00 65 1025.4
20260906105509 69 186 3.0 9.0 0.00 0.00 0.00 63 1025.5
20260906105008 68 101 4.0 9.0 0.00 0.00 0.00 65 1025.4
20260906104507 67 104 3.0 8.0 0.00 0.00 0.00 67 1025.6
20260906104009 67 78 3.0 6.0 0.00 0.00 0.00 69 1025.7
20260906103505 67 119 2.0 5.0 0.00 0.00 0.00 69 1025.7
20260906103009 67 153 2.0 7.0 0.00 0.00 0.00 68 1025.8
20260906102505 68 119 3.0 9.0 0.00 0.00 0.00 66 1025.8
20260906102003 68 115 3.0 9.0 0.00 0.00 0.00 68 1025.9
20260906101504 68 136 4.0 11.0 0.00 0.00 0.00 67 1025.9
20260906101002 67 125 3.0 11.0 0.00 0.00 0.00 68 1025.9
20260906100506 68 162 2.0 8.0 0.00 0.00 0.00 68 1026.0
20260906100001 68 129 2.0 8.0 0.00 0.00 0.00 68 1026.0
20260906095601 68 118 3.0 8.0 0.00 0.00 0.00 69 1026.0
20260906095100 67 117 2.0 7.0 0.00 0.00 0.00 69 1026.2
20260906094608 67 191 2.0 6.0 0.00 0.00 0.00 70 1026.2
20260906094055 67 121 2.0 7.0 0.00 0.00 0.00 70 1026.3
20260906093554 66 98 3.0 8.0 0.00 0.00 0.00 72 1026.3
20260906093101 66 117 2.0 8.0 0.00 0.00 0.00 72 1026.3
20260906092555 66 138 2.0 8.0 0.00 0.00 0.00 72 1026.4
20260906092051 66 122 2.0 7.0 0.00 0.00 0.00 74 1026.4
20260906091550 65 126 2.0 9.0 0.00 0.00 0.00 75 1026.5
20260906091049 65 128 3.0 9.0 0.00 0.00 0.00 74 1026.6
20260906090551 65 132 3.0 9.0 0.00 0.00 0.00 74 1026.6
20260906090114 65 163 3.0 7.0 0.00 0.00 0.00 74 1026.7
20260906085552 65 122 3.0 8.0 0.00 0.00 0.00 74 1026.7
20260906085047 65 136 3.0 8.0 0.00 0.00 0.00 74 1026.6
20260906084553 65 157 2.0 7.0 0.00 0.00 0.00 76 1026.7
20260906084047 65 171 2.0 7.0 0.00 0.00 0.00 76 1026.6
20260906083544 64 140 2.0 7.0 0.00 0.00 0.00 76 1026.7
20260906083044 64 142 2.0 7.0 0.00 0.00 0.00 76 1026.6
20260906082541 64 117 3.0 7.0 0.00 0.00 0.00 76 1026.5
20260906082040 64 108 2.0 7.0 0.00 0.00 0.00 77 1026.6
20260906081539 64 130 0.0 8.0 0.00 0.00 0.00 78 1026.5
20260906081038 64 138 1.0 8.0 0.00 0.00 0.00 78 1026.6
20260906080537 63 123 1.0 6.0 0.00 0.00 0.00 79 1026.5
20260906080035 63 124 2.0 6.0 0.00 0.00 0.00 79 1026.6
20260906075534 63 122 1.0 6.0 0.00 0.00 0.00 81 1026.5
20260906075031 62 96 2.0 8.0 0.00 0.00 0.00 82 1026.6
20260906074536 61 148 2.0 8.0 0.00 0.00 0.00 83 1026.6
20260906074028 61 109 1.0 5.0 0.00 0.00 0.00 84 1026.6
20260906073528 61 167 1.0 6.0 0.00 0.00 0.00 85 1026.6
20260906073026 60 134 2.0 6.0 0.00 0.00 0.00 85 1026.7
20260906072526 60 185 2.0 4.0 0.00 0.00 0.00 85 1026.7
20260906072026 60 85 1.0 6.0 0.00 0.00 0.00 85 1026.7
20260906071524 60 107 1.0 6.0 0.00 0.00 0.00 86 1026.7
20260906071024 59 153 2.0 6.0 0.00 0.00 0.00 88 1026.9
20260906070522 59 142 2.0 8.0 0.00 0.00 0.00 88 1026.9
20260906070021 58 124 2.0 8.0 0.00 0.00 0.00 90 1026.7
20260906065524 58 117 1.0 6.0 0.00 0.00 0.00 90 1026.8
20260906065021 57 112 1.0 4.0 0.00 0.00 0.00 91 1026.7
20260906064516 57 117 1.0 3.0 0.00 0.00 0.00 92 1026.6
20260906064014 56 180 1.0 3.0 0.00 0.00 0.00 92 1026.6
20260906063516 56 116 0.0 3.0 0.00 0.00 0.00 92 1026.6
20260906063012 56 116 0.0 2.0 0.00 0.00 0.00 92 1026.5
20260906062511 56 116 0.0 2.0 0.00 0.00 0.00 93 1026.6
20260906062011 55 116 0.0 4.0 0.00 0.00 0.00 93 1026.5
20260906061510 55 116 0.0 4.0 0.00 0.00 0.00 93 1026.6
20260906061009 55 118 0.0 3.0 0.00 0.00 0.00 93 1026.6
20260906060509 55 118 0.0 3.0 0.00 0.00 0.00 93 1026.5
20260906060009 55 118 0.0 3.0 0.00 0.00 0.00 93 1026.4
20260906055508 55 117 0.0 4.0 0.00 0.00 0.00 93 1026.5
20260906055008 55 117 1.0 4.0 0.00 0.00 0.00 93 1026.4
20260906054506 54 119 0.0 3.0 0.00 0.00 0.00 94 1026.3
20260906054006 54 119 0.0 3.0 0.00 0.00 0.00 94 1026.3
20260906053506 54 119 0.0 2.0 0.00 0.00 0.00 94 1026.4
20260906053006 54 119 0.0 2.0 0.00 0.00 0.00 94 1026.4
20260906052505 54 119 0.0 3.0 0.00 0.00 0.00 94 1026.4
20260906052004 54 115 1.0 2.0 0.00 0.00 0.00 94 1026.4
20260906051504 54 115 0.0 2.0 0.00 0.00 0.00 94 1026.4
20260906051004 54 115 0.0 2.0 0.00 0.00 0.00 94 1026.4
20260906050503 54 115 1.0 3.0 0.00 0.00 0.00 94 1026.3
20260906050003 54 115 1.0 3.0 0.00 0.00 0.00 95 1026.3
20260906045504 54 112 1.0 3.0 0.00 0.00 0.00 94 1026.2
20260906045003 53 131 0.0 3.0 0.00 0.00 0.00 94 1026.2
20260906044502 53 118 0.0 3.0 0.00 0.00 0.00 94 1026.2
20260906044003 53 118 0.0 2.0 0.00 0.00 0.00 94 1026.1
20260906043502 53 121 0.0 1.0 0.00 0.00 0.00 94 1026.1
20260906043002 53 121 0.0 2.0 0.00 0.00 0.00 94 1026.3
20260906042501 53 121 1.0 2.0 0.00 0.00 0.00 95 1026.2
20260906042001 53 121 0.0 2.0 0.00 0.00 0.00 95 1026.2
20260906041601 53 121 0.0 3.0 0.00 0.00 0.00 95 1026.2
20260906041059 53 122 1.0 3.0 0.00 0.00 0.00 95 1026.2
20260906040559 53 122 0.0 2.0 0.00 0.00 0.00 95 1026.2
20260906040100 53 134 0.0 2.0 0.00 0.00 0.00 95 1026.4
20260906035602 53 84 0.0 1.0 0.00 0.00 0.00 95 1026.4
20260906035059 53 84 0.0 2.0 0.00 0.00 0.00 95 1026.4
20260906034559 53 84 0.0 2.0 0.00 0.00 0.00 95 1026.4
20260906034101 53 84 0.0 2.0 0.00 0.00 0.00 95 1026.4
20260906033557 53 84 0.0 2.0 0.00 0.00 0.00 95 1026.4
20260906033058 53 84 0.0 2.0 0.00 0.00 0.00 95 1026.4
20260906032557 53 82 0.0 2.0 0.00 0.00 0.00 95 1026.5
20260906032057 52 321 0.0 0.0 0.00 0.00 0.00 94 1026.5
20260906031557 52 321 0.0 0.0 0.00 0.00 0.00 94 1026.4
20260906031057 52 321 0.0 0.0 0.00 0.00 0.00 94 1026.4
20260906030557 52 321 0.0 0.0 0.00 0.00 0.00 94 1026.5
20260906030057 52 321 0.0 0.0 0.00 0.00 0.00 94 1026.7
20260906025556 52 321 0.0 0.0 0.00 0.00 0.00 94 1026.8
20260906025056 52 321 0.0 0.0 0.00 0.00 0.00 94 1026.9
20260906024613 52 321 0.0 0.0 0.00 0.00 0.00 94 1026.9
20260906024058 53 321 0.0 0.0 0.00 0.00 0.00 94 1027.0
20260906023553 53 321 0.0 0.0 0.00 0.00 0.00 94 1027.1
20260906023102 53 321 0.0 0.0 0.00 0.00 0.00 94 1027.1
20260906022552 53 321 0.0 0.0 0.00 0.00 0.00 94 1027.2
20260906022052 53 321 0.0 0.0 0.00 0.00 0.00 94 1027.2
20260906021552 53 321 0.0 0.0 0.00 0.00 0.00 94 1027.2
20260906021051 53 321 0.0 0.0 0.00 0.00 0.00 93 1027.2
20260906020551 53 321 0.0 0.0 0.00 0.00 0.00 93 1027.2
20260906020051 53 321 0.0 0.0 0.00 0.00 0.00 93 1027.1
20260906015550 53 321 0.0 0.0 0.00 0.00 0.00 93 1027.0
20260906015050 53 321 0.0 0.0 0.00 0.00 0.00 93 1026.9
20260906014552 53 321 0.0 0.0 0.00 0.00 0.00 93 1026.9
20260906014049 53 321 0.0 0.0 0.00 0.00 0.00 93 1027.1
20260906013548 53 321 0.0 0.0 0.00 0.00 0.00 93 1027.1
20260906013048 53 321 0.0 0.0 0.00 0.00 0.00 93 1027.0
20260906012548 53 321 0.0 0.0 0.00 0.00 0.00 93 1026.9
20260906012048 53 321 0.0 0.0 0.00 0.00 0.00 93 1026.9
20260906011558 53 321 0.0 0.0 0.00 0.00 0.00 93 1026.9
20260906011047 53 321 0.0 0.0 0.00 0.00 0.00 93 1026.9
20260906010547 53 321 0.0 0.0 0.00 0.00 0.00 93 1027.1
20260906010119 53 321 0.0 0.0 0.00 0.00 0.00 93 1027.1
20260906005546 53 321 0.0 0.0 0.00 0.00 0.00 93 1027.1
20260906005047 53 321 0.0 0.0 0.00 0.00 0.00 93 1027.0
20260906004548 53 321 0.0 0.0 0.00 0.00 0.00 92 1027.0
20260906004045 53 321 0.0 0.0 0.00 0.00 0.00 92 1026.9
20260906003544 53 321 0.0 0.0 0.00 0.00 0.00 92 1026.8
20260906003047 53 321 0.0 0.0 0.00 0.00 0.00 92 1026.8
20260906002544 53 321 0.0 0.0 0.00 0.00 0.00 92 1026.8
20260906002044 54 321 0.0 0.0 0.00 0.00 0.00 92 1026.7
20260906001559 54 321 0.0 0.0 0.00 0.00 0.00 92 1026.5
20260906001043 54 321 0.0 0.0 0.00 0.00 0.00 92 1026.6
20260906000543 54 321 0.0 0.0 0.00 0.00 0.00 92 1026.7
20260906000042 54 321 0.0 0.0 0.00 0.00 0.00 92 1026.6
20260905235542 54 321 0.0 0.0 0.00 0.00 0.00 92 1026.8
20260905235043 54 321 0.0 0.0 0.00 0.00 0.00 91 1026.8
20260905234541 54 321 0.0 0.0 0.00 0.00 0.00 91 1026.9
20260905234041 54 321 0.0 0.0 0.00 0.00 0.00 91 1026.9
20260905233540 54 321 0.0 0.0 0.00 0.00 0.00 91 1026.9
20260905233041 54 321 0.0 0.0 0.00 0.00 0.00 91 1027.0
20260905232539 54 321 0.0 0.0 0.00 0.00 0.00 91 1027.0
20260905232039 54 321 0.0 0.0 0.00 0.00 0.00 91 1026.8
20260905231544 54 321 0.0 0.0 0.00 0.00 0.00 91 1026.8
20260905231039 54 321 0.0 0.0 0.00 0.00 0.00 91 1026.9
20260905230537 54 321 0.0 0.0 0.00 0.00 0.00 90 1026.8
20260905230039 54 321 0.0 0.0 0.00 0.00 0.00 90 1026.6
20260905225537 54 321 0.0 0.0 0.00 0.00 0.00 90 1026.6
20260905225036 54 321 0.0 0.0 0.00 0.00 0.00 90 1026.6
20260905224544 54 321 0.0 0.0 0.00 0.00 0.00 90 1026.6
20260905224036 54 321 0.0 0.0 0.00 0.00 0.00 90 1026.7
20260905223534 54 321 0.0 0.0 0.00 0.00 0.00 90 1026.6
20260905223039 55 321 0.0 0.0 0.00 0.00 0.00 89 1026.5
20260905222533 55 321 0.0 0.0 0.00 0.00 0.00 89 1026.6